• In Kazakhstan
  • List of Countries
  • For 7 days
  • Water Temperature
  • Satellite Maps
  • Weather Map
  • News
  • Weather Widgets
  • user-avatar
    Login

    Hourly Weather Thimphu

    Today, 22 July, Monday

    Time Temperature Precipitation Wind Pressure Humidity
    00:00 +12°C° 0 mm 1 mps 525 mmHg 95%
    01:00 +12°C° 0 mm 1 mps 524 mmHg 95%
    02:00 +12°C° 0 mm 1 mps 524 mmHg 95%
    03:00 +11°C° 0 mm 0 mps 524 mmHg 95%
    04:00 +11°C° 0 mm 0 mps 524 mmHg 94%
    05:00 +11°C° 0 mm 0 mps 524 mmHg 94%
    06:00 +11°C° 0 mm 0 mps 524 mmHg 94%
    07:00 +13°C° 0.1 mm 0 mps 526 mmHg 88%
    08:00 +16°C° 0.1 mm 1 mps 527 mmHg 83%
    09:00 +18°C° 0.1 mm 1 mps 528 mmHg 78%
    10:00 +20°C° 0.3 mm 1 mps 528 mmHg 75%
    11:00 +20°C° 0.3 mm 2 mps 528 mmHg 71%
    12:00 +21°C° 0.3 mm 2 mps 528 mmHg 68%
    13:00 +20°C° 0.9 mm 2 mps 527 mmHg 75%
    14:00 +18°C° 0.9 mm 2 mps 526 mmHg 82%
    15:00 +17°C° 0.9 mm 2 mps 525 mmHg 89%
    16:00 +17°C° 0.7 mm 2 mps 525 mmHg 91%
    17:00 +16°C° 0.7 mm 1 mps 524 mmHg 93%
    18:00 +15°C° 0.7 mm 1 mps 524 mmHg 96%
    19:00 +15°C° 0.3 mm 1 mps 524 mmHg 96%
    20:00 +14°C° 0.3 mm 1 mps 524 mmHg 96%
    21:00 +14°C° 0.3 mm 1 mps 524 mmHg 97%
    22:00 +13°C° 0.1 mm 1 mps 524 mmHg 96%
    23:00 +13°C° 0.1 mm 1 mps 524 mmHg 96%

    Tomorrow, 23 July, Tuesday

    Time Temperature Precipitation Wind Pressure Humidity
    00:00 +13°C° 0.1 mm 1 mps 524 mmHg 95%
    01:00 +13°C° 0.1 mm 1 mps 524 mmHg 95%
    02:00 +12°C° 0.1 mm 1 mps 523 mmHg 95%
    03:00 +12°C° 0.1 mm 1 mps 523 mmHg 95%
    04:00 +12°C° 1.4 mm 1 mps 523 mmHg 95%
    05:00 +12°C° 1.4 mm 1 mps 523 mmHg 94%
    06:00 +13°C° 1.4 mm 1 mps 523 mmHg 94%
    07:00 +14°C° 0.1 mm 1 mps 524 mmHg 91%
    08:00 +15°C° 0.1 mm 1 mps 525 mmHg 87%
    09:00 +16°C° 0.1 mm 1 mps 526 mmHg 83%
    10:00 +18°C° 0.4 mm 1 mps 526 mmHg 82%
    11:00 +18°C° 0.4 mm 2 mps 527 mmHg 81%
    12:00 +18°C° 0.4 mm 2 mps 527 mmHg 80%
    13:00 +18°C° 0.5 mm 2 mps 526 mmHg 83%
    14:00 +17°C° 0.5 mm 2 mps 526 mmHg 85%
    15:00 +17°C° 0.5 mm 2 mps 525 mmHg 87%
    16:00 +16°C° 0.3 mm 1 mps 525 mmHg 90%
    17:00 +15°C° 0.3 mm 1 mps 524 mmHg 92%
    18:00 +15°C° 0.3 mm 1 mps 524 mmHg 95%
    19:00 +14°C° 0.4 mm 1 mps 524 mmHg 96%
    20:00 +14°C° 0.4 mm 1 mps 524 mmHg 97%
    21:00 +12°C° 0.4 mm 0 mps 525 mmHg 98%
    22:00 +12°C° 0.4 mm 0 mps 525 mmHg 97%
    23:00 +12°C° 0.4 mm 0 mps 525 mmHg 97%

    Day after tomorrow, 24 July, Wednesday

    Time Temperature Precipitation Wind Pressure Humidity
    00:00 +12°C° 0.4 mm 0 mps 525 mmHg 96%
    01:00 +12°C° 0.3 mm 0 mps 524 mmHg 96%
    02:00 +12°C° 0.3 mm 0 mps 524 mmHg 96%
    03:00 +12°C° 0.3 mm 0 mps 523 mmHg 95%
    04:00 +12°C° 0.1 mm 0 mps 523 mmHg 95%
    05:00 +12°C° 0.1 mm 0 mps 523 mmHg 95%
    06:00 +12°C° 0.1 mm 0 mps 523 mmHg 95%
    07:00 +13°C° 0 mm 0 mps 524 mmHg 91%
    08:00 +15°C° 0 mm 1 mps 525 mmHg 87%
    09:00 +16°C° 0 mm 1 mps 526 mmHg 84%
    10:00 +18°C° 0.7 mm 1 mps 526 mmHg 84%
    11:00 +18°C° 0.7 mm 2 mps 526 mmHg 83%
    12:00 +18°C° 0.7 mm 2 mps 527 mmHg 83%
    13:00 +18°C° 0.9 mm 2 mps 526 mmHg 85%
    14:00 +17°C° 0.9 mm 2 mps 526 mmHg 87%
    15:00 +17°C° 0.9 mm 2 mps 525 mmHg 89%
    16:00 +16°C° 0.7 mm 1 mps 525 mmHg 91%
    17:00 +16°C° 0.7 mm 1 mps 524 mmHg 94%
    18:00 +15°C° 0.7 mm 1 mps 524 mmHg 96%
    19:00 +14°C° 0.3 mm 1 mps 524 mmHg 97%
    20:00 +13°C° 0.3 mm 0 mps 525 mmHg 97%
    21:00 +13°C° 0.3 mm 0 mps 525 mmHg 98%
    22:00 +13°C° 0.3 mm 0 mps 525 mmHg 98%
    23:00 +12°C° 0.3 mm 0 mps 525 mmHg 98%

    25 July, Thursday

    Time Temperature Precipitation Wind Pressure Humidity
    00:00 +12°C° 0.3 mm 0 mps 525 mmHg 98%
    01:00 +12°C° 1.1 mm 0 mps 525 mmHg 98%
    02:00 +12°C° 1.1 mm 0 mps 524 mmHg 98%
    03:00 +12°C° 1.1 mm 0 mps 524 mmHg 99%
    04:00 +12°C° 0.6 mm 0 mps 524 mmHg 98%
    05:00 +12°C° 0.6 mm 0 mps 525 mmHg 97%
    06:00 +12°C° 0.6 mm 0 mps 525 mmHg 96%
    07:00 +13°C° 0.1 mm 0 mps 525 mmHg 93%
    08:00 +15°C° 0.1 mm 1 mps 526 mmHg 90%
    09:00 +18°C° 0.1 mm 1 mps 527 mmHg 87%
    10:00 +18°C° 0.6 mm 1 mps 527 mmHg 86%
    11:00 +17°C° 0.6 mm 2 mps 527 mmHg 86%
    12:00 +17°C° 0.6 mm 2 mps 527 mmHg 85%
    13:00 +17°C° 1 mm 2 mps 526 mmHg 88%
    14:00 +16°C° 1 mm 2 mps 525 mmHg 91%
    15:00 +16°C° 1 mm 1 mps 525 mmHg 94%
    16:00 +15°C° 0.7 mm 1 mps 525 mmHg 95%
    17:00 +15°C° 0.7 mm 1 mps 524 mmHg 96%
    18:00 +14°C° 0.7 mm 1 mps 524 mmHg 97%
    19:00 +14°C° 0.5 mm 1 mps 524 mmHg 98%
    20:00 +12°C° 0.5 mm 0 mps 525 mmHg 98%
    21:00 +12°C° 0.5 mm 0 mps 525 mmHg 98%
    22:00 +12°C° 0.2 mm 0 mps 525 mmHg 98%
    23:00 +12°C° 0.2 mm 0 mps 525 mmHg 97%

    26 July, Friday

    Time Temperature Precipitation Wind Pressure Humidity
    00:00 +12°C° 0.2 mm 0 mps 525 mmHg 97%
    01:00 +12°C° 0.3 mm 0 mps 524 mmHg 97%
    02:00 +11°C° 0.3 mm 0 mps 524 mmHg 97%
    03:00 +11°C° 0.3 mm 0 mps 524 mmHg 97%
    04:00 +11°C° 0 mm 0 mps 524 mmHg 96%
    05:00 +12°C° 0 mm 0 mps 524 mmHg 96%
    06:00 +12°C° 0 mm 0 mps 524 mmHg 95%
    07:00 +13°C° 0.1 mm 0 mps 525 mmHg 92%
    08:00 +15°C° 0.1 mm 1 mps 526 mmHg 88%
    09:00 +16°C° 0.1 mm 1 mps 527 mmHg 85%
    10:00 +18°C° 0.7 mm 1 mps 527 mmHg 83%
    11:00 +19°C° 0.7 mm 1 mps 527 mmHg 82%
    12:00 +19°C° 0.7 mm 2 mps 527 mmHg 81%
    13:00 +18°C° 1.6 mm 2 mps 526 mmHg 83%
    14:00 +18°C° 1.6 mm 2 mps 526 mmHg 85%
    15:00 +18°C° 1.6 mm 2 mps 525 mmHg 87%
    16:00 +17°C° 1.1 mm 2 mps 525 mmHg 90%
    17:00 +16°C° 1.1 mm 1 mps 524 mmHg 92%
    18:00 +15°C° 1.1 mm 1 mps 524 mmHg 95%
    19:00 +14°C° 0.5 mm 1 mps 524 mmHg 96%
    20:00 +13°C° 0.5 mm 1 mps 524 mmHg 96%
    21:00 +11°C° 0.5 mm 0 mps 524 mmHg 97%
    22:00 +11°C° 0.1 mm 0 mps 524 mmHg 96%
    23:00 +11°C° 0.1 mm 0 mps 524 mmHg 95%

    27 July, Saturday

    Time Temperature Precipitation Wind Pressure Humidity
    00:00 +11°C° 0.1 mm 0 mps 524 mmHg 95%
    01:00 +11°C° 0 mm 0 mps 524 mmHg 95%
    02:00 +11°C° 0 mm 0 mps 523 mmHg 95%
    03:00 +11°C° 0 mm 0 mps 523 mmHg 95%
    04:00 +11°C° 0 mm 0 mps 523 mmHg 95%
    05:00 +11°C° 0 mm 0 mps 523 mmHg 95%
    06:00 +11°C° 0 mm 0 mps 524 mmHg 94%
    07:00 +14°C° 0 mm 1 mps 525 mmHg 89%
    08:00 +16°C° 0 mm 1 mps 526 mmHg 83%
    09:00 +19°C° 0 mm 1 mps 527 mmHg 77%
    10:00 +19°C° 0.7 mm 1 mps 527 mmHg 78%
    11:00 +19°C° 0.7 mm 2 mps 527 mmHg 79%
    12:00 +19°C° 0.7 mm 2 mps 527 mmHg 79%
    13:00 +19°C° 1.3 mm 2 mps 526 mmHg 82%
    14:00 +19°C° 1.3 mm 2 mps 526 mmHg 84%
    15:00 +18°C° 1.3 mm 2 mps 525 mmHg 86%
    16:00 +18°C° 1 mm 1 mps 524 mmHg 90%
    17:00 +16°C° 1.1 mm 1 mps 524 mmHg 93%
    18:00 +15°C° 1.1 mm 1 mps 523 mmHg 97%
    19:00 +15°C° 0.4 mm 1 mps 523 mmHg 97%
    20:00 +14°C° 0.4 mm 1 mps 524 mmHg 98%
    21:00 +13°C° 0.4 mm 0 mps 524 mmHg 98%
    22:00 +13°C° 0.4 mm 0 mps 524 mmHg 98%
    23:00 +12°C° 0.4 mm 0 mps 524 mmHg 98%
    Show more